Weather reports worldwide

Advertisment
Coleshill, United Kingdom (3535): temperature & dewpoint: 20.03.2019 19:00:00 - 26.03.2019 19:00:00 (GMT)Coleshill, United Kingdom (3535): temperature -20cm & temperature -100cm: 20.03.2019 19:00:00 - 26.03.2019 19:00:00 (GMT)Coleshill, United Kingdom (3535): wind speed: 20.03.2019 19:00:00 - 26.03.2019 19:00:00 (GMT)Coleshill, United Kingdom (3535): wind direction: 20.03.2019 19:00:00 - 26.03.2019 19:00:00 (GMT)Coleshill, United Kingdom (3535): reduced air pressure: 20.03.2019 19:00:00 - 26.03.2019 19:00:00 (GMT)Coleshill, United Kingdom (3535): visibility: 20.03.2019 19:00:00 - 26.03.2019 19:00:00 (GMT)Coleshill, United Kingdom (3535): precipitation: 20.03.2019 19:00:00 - 26.03.2019 19:00:00 (GMT)
Date & Time tt [°C] td [°C] tt -20cm [°C] tt -100cm [°C] ff [km/h] ff [kn] dd ppp [hPa] vv [km] rr [mm]
26.03.2019 19:00:00 8,8 3,1 - - 15 8 NW 1033,7 35 0,0
26.03.2019 18:00:00 9,9 4,9 - - 16 9 N 1032,9 23 0,0
26.03.2019 17:00:00 11,4 5,1 - - 15 8 N 1032,3 25 0,0
26.03.2019 16:00:00 12,8 4,6 - - 13 7 WNW 1032,0 19 0,0
26.03.2019 15:00:00 13,1 3,6 - - 15 8 NW 1032,4 25 0,0
26.03.2019 14:00:00 12,6 4,2 - - 15 8 NW 1033,1 30 0,0
26.03.2019 13:00:00 11,6 3,7 - - 9 5 WNW 1033,7 24 0,0
26.03.2019 12:00:00 11,0 3,7 - - 16 9 NW 1034,2 28 0,0
26.03.2019 11:00:00 10,3 2,8 - - 15 8 WNW 1034,4 26 0,0
26.03.2019 10:00:00 9,3 2,6 - - 9 5 W 1034,8 28 0,0
26.03.2019 09:00:00 7,9 3,7 8,2 8,4 9 5 NW 1034,9 14 0,0
26.03.2019 08:00:00 5,6 2,7 - - 9 5 WNW 1035,0 19 0,0
26.03.2019 07:00:00 2,2 0,8 - - 2 1 NNW 1035,4 15 0,0
26.03.2019 06:00:00 1,6 0,2 - - 2 1 S 1035,2 13 0,0
26.03.2019 05:00:00 2,6 0,9 - - 8 4 W 1034,7 17 0,0
26.03.2019 04:00:00 1,4 0,9 - - 2 1 WNW 1034,9 10 0,0
26.03.2019 03:00:00 1,2 0,5 - - 4 2 SSW 1035,2 9 0,0
26.03.2019 02:00:00 1,1 0,0 - - 5 3 W 1035,5 11 0,0
26.03.2019 01:00:00 1,9 0,2 - - 4 2 WNW 1035,7 11 0,0
26.03.2019 00:00:00 3,4 1,1 - - 8 4 W 1035,7 13 0,0
25.03.2019 23:00:00 3,5 0,5 - - 8 4 W 1035,8 20 0,0
25.03.2019 22:00:00 4,2 0,5 - - 5 3 W 1035,4 19 0,0
25.03.2019 21:00:00 5,6 0,1 - - 8 4 NW 1035,5 23 0,0
25.03.2019 20:00:00 5,9 -0,4 - - 8 4 NW 1035,1 30 0,0
25.03.2019 19:00:00 7,8 0,7 - - 13 7 NW 1034,3 35 0,0
25.03.2019 18:00:00 9,3 1,0 - - 13 7 NNW 1033,5 35 0,0
25.03.2019 17:00:00 10,7 1,2 - - 15 8 N 1033,2 35 0,0
25.03.2019 16:00:00 11,5 1,4 - - 16 9 N 1033,2 30 0,0
25.03.2019 15:00:00 11,2 1,0 - - 18 10 N 1033,3 20 0,0
25.03.2019 14:00:00 10,9 1,9 - - 16 9 NNW 1033,3 27 0,0
25.03.2019 13:00:00 10,5 2,8 - - 16 9 NNW 1033,5 19 0,0
25.03.2019 12:00:00 9,9 2,2 - - 15 8 NNW 1033,8 22 0,0
25.03.2019 11:00:00 8,3 1,0 - - 21 11 NNW 1033,9 28 0,0
25.03.2019 10:00:00 8,8 2,4 - - 22 12 NNW 1033,6 20 0,0
25.03.2019 09:00:00 7,3 2,1 8,7 8,4 22 12 NW 1033,2 14 0,0
25.03.2019 08:00:00 6,0 2,4 - - 16 9 NW 1032,4 15 0,0
25.03.2019 07:00:00 4,7 2,0 - - 15 8 NW 1031,4 11 0,0
25.03.2019 06:00:00 4,3 1,7 - - 15 8 NW 1030,6 13 0,0
25.03.2019 05:00:00 4,4 1,0 - - 13 7 NW 1030,1 14 0,0
25.03.2019 04:00:00 5,1 1,3 - - 16 9 WNW 1029,8 14 0,0
25.03.2019 03:00:00 5,7 1,7 - - 21 11 WNW 1029,2 17 0,0
25.03.2019 02:00:00 6,1 2,4 - - 18 10 WNW 1029,1 17 0,0
25.03.2019 01:00:00 6,9 3,5 - - 16 9 WNW 1029,1 13 0,0
25.03.2019 00:00:00 7,2 4,0 - - 18 10 WNW 1028,6 19 0,0
24.03.2019 23:00:00 8,1 3,6 - - 15 8 WNW 1028,8 30 0,0
24.03.2019 22:00:00 8,0 3,1 - - 22 12 W 1028,4 35 0,0
24.03.2019 21:00:00 7,8 2,6 - - 22 12 W 1028,7 45 0,0
24.03.2019 20:00:00 8,3 2,3 - - 22 12 W 1028,9 35 0,0
24.03.2019 19:00:00 8,5 1,9 - - 26 14 W 1028,9 50 0,0
24.03.2019 18:00:00 9,4 1,5 - - 24 13 WNW 1028,9 50 0,0
24.03.2019 17:00:00 10,2 1,2 - - 21 11 W 1028,8 40 0,0
24.03.2019 16:00:00 10,5 0,2 - - 21 11 W 1029,1 50 0,0
24.03.2019 15:00:00 11,3 0,8 - - 22 12 W 1029,2 40 0,0
24.03.2019 14:00:00 10,7 -0,3 - - 22 12 W 1029,5 23 0,0
24.03.2019 13:00:00 10,2 0,5 - - 22 12 W 1030,4 28 0,0
24.03.2019 12:00:00 10,0 0,5 - - 16 9 WNW 1031,0 25 0,0
24.03.2019 11:00:00 8,8 0,5 - - 16 9 NW 1031,3 35 0,0
24.03.2019 10:00:00 8,7 0,9 - - 15 8 NW 1031,9 30 0,0
24.03.2019 09:00:00 7,4 0,5 8,7 8,2 11 6 NW 1032,1 29 0,0
24.03.2019 08:00:00 5,8 2,7 - - 8 4 W 1031,9 16 0,0
24.03.2019 07:00:00 2,0 1,0 - - 2 1 W 1031,8 22 0,0
24.03.2019 06:00:00 2,3 1,0 - - 2 1 ESE 1031,5 20 0,0
24.03.2019 05:00:00 3,6 1,5 - - 2 1 NNW 1031,3 19 0,0
24.03.2019 04:00:00 3,8 1,8 - - 2 1 N 1031,8 24 0,0
24.03.2019 03:00:00 4,5 1,9 - - 0 0 N 1031,6 24 0,0
24.03.2019 02:00:00 5,2 1,4 - - 2 1 WNW 1032,1 26 0,0
24.03.2019 01:00:00 5,4 1,1 - - 4 2 NNW 1032,6 20 0,0
24.03.2019 00:00:00 5,6 1,9 - - 5 3 NNW 1033,4 25 0,0
23.03.2019 23:00:00 5,6 1,6 - - 5 3 N 1033,6 24 0,0
23.03.2019 22:00:00 5,8 1,7 - - 5 3 N 1033,7 23 0,0
23.03.2019 21:00:00 5,9 1,6 - - 4 2 NNW 1033,7 28 0,0
23.03.2019 20:00:00 7,1 1,7 - - 2 1 NE 1033,4 28 0,0
23.03.2019 19:00:00 7,5 0,1 - - 4 2 NE 1033,1 35 0,0
23.03.2019 18:00:00 8,3 0,2 - - 4 2 NE 1032,9 35 0,0
23.03.2019 17:00:00 9,1 0,4 - - 8 4 N 1033,0 23 0,0
23.03.2019 16:00:00 9,8 0,8 - - 9 5 NNE 1032,9 29 0,0
23.03.2019 15:00:00 10,2 1,1 - - 9 5 NNW 1033,2 20 0,0
23.03.2019 14:00:00 9,6 2,1 - - 5 3 NE 1033,4 25 0,0
23.03.2019 13:00:00 8,7 1,8 - - 9 5 NNE 1033,9 19 0,0
23.03.2019 12:00:00 8,8 2,0 - - 13 7 N 1034,0 20 0,0
23.03.2019 11:00:00 8,2 1,0 - - 13 7 N 1033,9 26 0,0
23.03.2019 10:00:00 8,2 2,7 - - 9 5 N 1033,7 17 0,0
23.03.2019 09:00:00 8,0 3,1 9,2 8,2 13 7 NNW 1033,3 18 0,0
23.03.2019 08:00:00 7,3 3,0 - - 11 6 N 1032,6 22 0,0
23.03.2019 07:00:00 6,6 2,9 - - 9 5 NNW 1031,9 17 0,0
23.03.2019 06:00:00 7,0 2,5 - - 11 6 NNW 1031,0 19 0,0
23.03.2019 05:00:00 7,3 4,6 - - 11 6 NNW 1030,4 18 0,0
23.03.2019 04:00:00 7,7 4,8 - - 11 6 NW 1029,8 22 0,0
23.03.2019 03:00:00 8,5 4,7 - - 11 6 NW 1029,3 28 0,0
23.03.2019 02:00:00 9,1 5,0 - - 15 8 NNW 1028,7 30 0,0
23.03.2019 01:00:00 9,5 5,4 - - 11 6 NW 1028,0 40 0,0
23.03.2019 00:00:00 10,3 7,3 - - 9 5 WSW 1027,2 45 0,0
22.03.2019 23:00:00 10,4 7,1 - - 8 4 WSW 1027,2 50 0,0
22.03.2019 22:00:00 10,6 6,6 - - 9 5 SW 1027,2 50 0,0
22.03.2019 21:00:00 10,6 6,1 - - 11 6 SW 1026,8 50 0,0
22.03.2019 20:00:00 10,8 6,1 - - 9 5 SW 1026,4 40 0,0
22.03.2019 19:00:00 10,9 5,8 - - 13 7 SW 1026,1 50 0,0
22.03.2019 18:00:00 11,2 6,3 - - 9 5 WSW 1026,1 45 0,0
22.03.2019 17:00:00 11,6 6,6 - - 11 6 SW 1025,5 30 0,0
22.03.2019 16:00:00 12,0 6,7 - - 13 7 SW 1025,1 30 0,0
22.03.2019 15:00:00 12,1 6,9 - - 18 10 SSW 1025,0 30 0,0
22.03.2019 14:00:00 13,3 7,5 - - 21 11 SSW 1025,0 35 0,0
22.03.2019 13:00:00 13,0 6,8 - - 21 11 SSW 1025,8 29 0,0
22.03.2019 12:00:00 11,9 6,7 - - 13 7 SW 1026,3 40 0,0
22.03.2019 11:00:00 10,4 6,0 - - 16 9 SSW 1026,7 30 0,0
22.03.2019 10:00:00 10,0 6,5 - - 18 10 SSW 1026,8 40 0,0
22.03.2019 09:00:00 9,1 6,3 9,0 8,0 15 8 SSW 1027,3 30 0,0
22.03.2019 08:00:00 9,2 6,5 - - 24 13 SSW 1027,2 22 0,0
22.03.2019 07:00:00 9,5 7,2 - - 21 11 SSW 1027,2 13 0,0
22.03.2019 06:00:00 10,0 7,7 - - 18 10 S 1027,2 8 0,0
22.03.2019 05:00:00 10,2 7,6 - - 11 6 S 1027,4 35 0,0
22.03.2019 04:00:00 10,1 7,7 - - 11 6 S 1028,0 30 0,0
22.03.2019 03:00:00 10,4 7,5 - - 18 10 S 1028,2 30 0,0
22.03.2019 02:00:00 10,6 7,8 - - 13 7 SSW 1028,7 20 0,0
22.03.2019 01:00:00 10,3 8,1 - - 8 4 SSE 1029,2 11 0,0
22.03.2019 00:00:00 10,5 8,0 - - 8 4 SSW 1030,2 15 0,0
21.03.2019 23:00:00 10,4 8,1 - - 9 5 S 1030,6 12 0,0
21.03.2019 22:00:00 10,4 7,9 - - 11 6 SSE 1030,9 18 0,0
21.03.2019 21:00:00 10,5 8,2 - - 8 4 SSE 1031,5 28 0,0
21.03.2019 20:00:00 10,8 8,3 - - 8 4 SSE 1031,8 30 0,0
21.03.2019 19:00:00 11,2 8,2 - - 5 3 SSE 1031,6 35 0,0
21.03.2019 18:00:00 11,7 8,3 - - 5 3 SSW 1031,8 30 0,0
21.03.2019 17:00:00 11,8 8,2 - - 5 3 SSW 1031,7 40 0,0
21.03.2019 16:00:00 11,9 8,7 - - 11 6 SSW 1031,8 40 0,0
21.03.2019 15:00:00 12,3 8,6 - - 13 7 SSW 1032,1 40 0,0
21.03.2019 14:00:00 13,3 9,1 - - 9 5 SW 1032,4 40 0,0
21.03.2019 13:00:00 13,2 8,6 - - 5 3 WSW 1033,1 35 0,0
21.03.2019 12:00:00 12,9 8,7 - - 11 6 W 1033,3 27 0,0
21.03.2019 11:00:00 12,7 9,2 - - 11 6 WSW 1033,3 19 0,0
21.03.2019 10:00:00 12,3 9,0 - - 13 7 W 1033,1 30 0,0
21.03.2019 09:00:00 10,4 8,2 8,7 7,7 11 6 WSW 1033,2 28 0,0
21.03.2019 08:00:00 8,8 8,1 - - 8 4 SW 1032,9 13 0,0
21.03.2019 07:00:00 7,4 7,0 - - 8 4 SSW 1032,7 8 0,0
21.03.2019 06:00:00 7,2 6,7 - - 9 5 SW 1032,1 5 0,0
21.03.2019 05:00:00 7,5 6,9 - - 13 7 SW 1031,6 7 0,0
21.03.2019 04:00:00 7,3 6,5 - - 8 4 SW 1031,5 6 0,0
21.03.2019 03:00:00 7,8 7,0 - - 11 6 SSW 1031,6 9 0,0
21.03.2019 02:00:00 7,9 7,0 - - 13 7 SSW 1031,9 7 0,0
21.03.2019 01:00:00 7,7 6,9 - - 9 5 SSW 1032,3 7 0,0
21.03.2019 00:00:00 8,3 7,5 - - 11 6 WSW 1032,4 6 0,0
20.03.2019 23:00:00 8,4 7,7 - - 11 6 SW 1032,3 3,9 0,0
20.03.2019 22:00:00 8,5 7,4 - - 9 5 SSW 1032,0 7 0,0
20.03.2019 21:00:00 9,1 7,7 - - 15 8 S 1031,9 5 0,0
20.03.2019 20:00:00 9,8 7,8 - - 11 6 SSW 1031,8 30 0,0
20.03.2019 19:00:00 10,9 8,3 - - 15 8 SSW 1031,5 40 0,0

tt = temperature
td = dewpoint
tt -20cm = temperature -20cm
tt -100cm = temperature -100cm
ff = wind speed
dd = wind direction
ppp = reduced air pressure
vv = visibility
rr = precipitation

Next stations